[[{"header":{"parameterUnit":"m.s-1","parameterCategory":1,"la1":30.2991,"la2":30.254,"lo1":-89.0895,"lo2":-89.0444,"dy":0.0017,"dx":0.0017,"nx":28,"ny":28,"refTime":"2024-05-15T03:00:00:Z","depth":0,"parameterNumber":2,"parameterNumberName":"U-component_of_WINDS"},"data":[0,0,0,0,0,0,0,0,0,0,0,0,0,0,0,0,0,0,0,0,0,0,0,0,0,0,0,0,0,0,0,0,0,0,0,0,0,0,0,0,0,0,0,0,0,0,0,0,0,0,0,0,0,0,0,0,0,0,1.6657,1.6658,0,1.6755,1.6756,1.6757,1.677,1.6769,1.6768,1.6767,1.6875,1.6879,1.6882,0,0,0,0,0,0,0,0,0,0,0,0,0,1.6488,1.6491,1.6657,1.6658,1.6659,1.6755,1.6756,1.6758,1.677,1.6769,1.6768,1.6767,1.6874,1.6878,1.6883,0,0,0,0,0,0,0,0,0,0,0,0,0,1.6571,1.6491,1.6657,1.6677,1.668,1.6755,1.6756,1.6758,1.6771,1.6769,1.6768,1.6766,1.6872,1.6878,1.6883,1.6947,0,0,1.6901,1.6903,0,0,0,0,0,0,0,0,1.6566,1.6577,1.6673,1.6676,1.6679,1.6749,1.6736,1.6822,1.6771,1.6736,1.6767,1.6766,1.6835,1.6843,1.6865,1.6952,1.6957,1.6901,1.6905,1.6907,1.6909,0,0,0,0,0,0,0,1.6561,1.6573,1.6696,1.6674,1.6678,1.6684,1.6694,1.6752,1.6793,1.6739,1.674,1.6752,1.6836,1.686,1.6868,1.6958,1.6901,1.6906,1.6909,1.6912,1.7105,1.7106,0,0,0,0,0,0,1.655,1.6568,1.6693,1.6699,1.6618,1.6688,1.6699,1.6728,1.6792,1.68,1.6753,1.6752,1.6851,1.6861,1.6872,1.6952,1.6907,1.6912,1.6915,1.7103,1.7105,1.7107,0,0,0,0,0,0,1.6546,1.6561,1.6689,1.6634,1.6651,1.6692,1.6724,1.6731,1.6754,1.6802,1.681,1.6769,1.685,1.6864,1.6928,1.6956,1.6915,1.692,1.7101,1.7104,1.7106,1.7112,0,0,0,0,0,0,1.6541,1.656,1.6582,1.6634,1.6653,1.6742,1.6726,1.6734,1.6763,1.6763,1.6819,1.6827,1.685,1.692,1.6934,1.6963,1.6924,1.7099,1.7102,1.7105,1.7109,1.7114,1.7119,0,0,0,0,0,1.6535,1.6581,1.6583,1.6598,1.6682,1.6743,1.6754,1.6777,1.6765,1.679,1.6821,1.6826,1.695,1.6926,1.6942,1.6973,1.7097,1.7101,1.7105,1.7107,1.7113,1.7118,0,0,0,0,0,0,1.6533,1.6588,1.6591,1.6655,1.6694,1.6745,1.6777,1.6783,1.6828,1.6826,1.6855,1.6868,1.6931,1.6959,1.6931,1.7039,1.7023,1.703,1.7019,1.7025,1.703,1.7023,1.6929,0,0,0,0,0,1.654,1.6582,1.6629,1.668,1.67,1.6735,1.6762,1.6776,1.6819,1.6836,1.6872,1.6915,1.6964,1.6996,1.7044,1.7113,1.7127,1.7143,1.7147,1.7151,1.7157,1.7198,1.7206,1.712,1.712,1.712,0,0,1.6555,1.659,1.6615,1.6681,1.6713,1.6759,1.6749,1.6797,1.6832,1.6844,1.6907,1.6935,1.6985,1.7053,1.7085,1.7078,1.7184,1.7156,1.7158,1.7163,1.7203,1.7211,1.7218,1.7123,1.7122,1.7122,0,0,1.6605,1.6635,1.6682,1.6714,1.6762,1.6785,1.6796,1.6847,1.6865,1.6928,1.6939,1.6982,1.7065,1.7101,1.7131,1.7196,1.7203,1.721,1.7235,1.7275,1.7281,1.7288,1.7313,1.7321,1.7217,1.7217,1.7217,0,1.6618,1.6685,1.6706,1.6754,1.6784,1.6795,1.6845,1.6876,1.6938,1.6959,1.695,1.7055,1.709,1.7167,1.7183,1.7205,1.7221,1.7205,1.7278,1.7285,1.7291,1.7315,1.7325,1.7217,1.7217,1.7217,1.7217,0,1.67,1.6746,1.6779,1.6837,1.687,1.6919,1.695,1.6981,1.6993,1.7018,1.7084,1.7125,1.7182,1.7201,1.7214,1.7281,1.7275,1.7272,1.7256,1.7299,1.7323,1.7332,1.7218,1.7218,1.7218,1.7218,0,0,1.6752,1.6821,1.6833,1.686,1.6914,1.6952,1.7002,1.7056,1.7083,1.7126,1.7171,1.7241,1.7238,1.7272,1.7288,1.7323,1.7374,1.7315,1.7317,1.7326,1.7453,1.7457,1.7467,1.7378,1.738,1.7382,1.745,0,1.6811,1.6898,1.6919,1.6995,1.704,1.7051,1.7096,1.7135,1.716,1.7204,1.7232,1.7282,1.7273,1.7294,1.7328,1.736,1.74,1.7356,1.7423,1.7425,1.7411,1.7479,1.7483,1.7545,1.7459,1.746,1.7462,0,1.689,1.6933,1.7013,1.7062,1.7082,1.7121,1.7173,1.7213,1.7259,1.7275,1.7312,1.7326,1.7381,1.7361,1.744,1.7409,1.7438,1.7458,1.7461,1.747,1.7447,1.7491,1.7565,1.7575,1.7476,1.7475,1.7474,0,1.6923,1.7001,1.7059,1.7082,1.714,1.7168,1.7194,1.7238,1.727,1.7316,1.7337,1.7389,1.7419,1.746,1.7489,1.7471,1.7566,1.7548,1.7583,1.7582,1.7603,1.7602,1.7685,1.7619,1.7619,1.7619,1.7619,0,1.6987,1.7036,1.7074,1.7111,1.7167,1.7191,1.7247,1.7274,1.7313,1.7357,1.737,1.7411,1.7445,1.7492,1.7514,1.7577,1.759,1.7606,1.7612,1.7606,1.7604,1.7627,1.7624,1.7621,1.7621,1.762,1.762,0,1.7033,1.706,1.7125,1.7175,1.7189,1.7229,1.7273,1.731,1.7334,1.7389,1.7404,1.7444,1.75,1.7531,1.7602,1.7617,1.7687,1.769,1.7671,1.7674,1.7708,1.7705,1.7809,1.7825,1.7747,1.7748,1.7748,0,1.7073,1.711,1.7164,1.7193,1.7219,1.7266,1.7298,1.7324,1.7358,1.7413,1.7444,1.75,1.7546,1.7634,1.7671,1.7726,1.7731,1.7764,1.774,1.7733,1.7734,1.7732,1.7737,1.7769,1.7769,1.777,1.777,0,1.7141,1.7153,1.7197,1.7247,1.7284,1.7325,1.7366,1.7389,1.7423,1.746,1.7515,1.7551,1.7622,1.7678,1.7736,1.7765,1.7775,1.7777,1.7789,1.7784,1.7772,1.7781,1.7685,1.7775,1.7775,1.7775,1.7774,1.7774,1.7186,1.7221,1.7265,1.7314,1.7347,1.7385,1.7423,1.7452,1.7498,1.7557,1.757,1.7629,1.7676,1.7754,1.7785,1.7834,1.7828,1.7844,1.7849,1.7853,1.7854,1.7763,1.7844,1.7844,1.7844,1.7844,1.7844,0,1.7257,1.7285,1.733,1.7386,1.7426,1.7428,1.7474,1.7508,1.7559,1.7601,1.7646,1.7711,1.7766,1.7807,1.7863,1.7894,1.79,1.7909,1.7907,1.7915,1.7855,1.7841,1.7903,1.7903,1.7903,1.7903,1.7903,1.7903,1.7298,1.7358,1.7375,1.7452,1.7481,1.7538,1.7564,1.76,1.7633,1.7705,1.775,1.7775,1.7818,1.7877,1.7929,1.794,1.7961,1.7969,1.7981,1.7925,1.7919,1.7913,1.7899,1.7973,1.7973,1.8036,1.8037,1.8037]},{"header":{"parameterUnit":"m.s-1","parameterCategory":1,"la1":30.2991,"la2":30.254,"lo1":-89.0895,"lo2":-89.0444,"dy":0.0017,"dx":0.0017,"nx":28,"ny":28,"refTime":"2024-05-15T03:00:00:Z","depth":0,"parameterNumber":3,"parameterNumberName":"V-component_of_WINDS"},"data":[0,0,0,0,0,0,0,0,0,0,0,0,0,0,0,0,0,0,0,0,0,0,0,0,0,0,0,0,0,0,0,0,0,0,0,0,0,0,0,0,0,0,0,0,0,0,0,0,0,0,0,0,0,0,0,0,0,0,1.8373,1.8375,0,1.8619,1.8622,1.8625,1.8608,1.8604,1.8601,1.8597,1.8849,1.8859,1.8869,0,0,0,0,0,0,0,0,0,0,0,0,0,1.7883,1.7892,1.8373,1.8376,1.8379,1.8619,1.8622,1.8625,1.8609,1.8604,1.86,1.8596,1.8845,1.8857,1.8869,0,0,0,0,0,0,0,0,0,0,0,0,0,1.8109,1.7895,1.8372,1.8399,1.8404,1.8618,1.8622,1.8626,1.861,1.8604,1.8599,1.8594,1.8841,1.8856,1.8871,1.9074,0,0,1.8917,1.8924,0,0,0,0,0,0,0,0,1.8096,1.8127,1.8392,1.8398,1.8404,1.8577,1.8542,1.8776,1.8611,1.8532,1.8597,1.8591,1.8763,1.8784,1.8842,1.9085,1.9096,1.8919,1.8928,1.8934,1.8939,0,0,0,0,0,0,0,1.8081,1.8117,1.847,1.8396,1.8403,1.8398,1.8424,1.8586,1.8675,1.8538,1.8537,1.8567,1.8765,1.8828,1.8848,1.91,1.8918,1.8932,1.8941,1.8947,1.9516,1.9521,0,0,0,0,0,0,1.8059,1.8104,1.8462,1.8477,1.8234,1.8411,1.844,1.8527,1.8673,1.869,1.8571,1.8565,1.8805,1.883,1.8857,1.91,1.8934,1.8948,1.8957,1.951,1.9517,1.9524,0,0,0,0,0,0,1.8049,1.8092,1.8452,1.8291,1.8336,1.8425,1.8523,1.8535,1.8598,1.8698,1.8713,1.862,1.8801,1.8835,1.9019,1.9109,1.8955,1.8969,1.9503,1.9512,1.952,1.9591,0,0,0,0,0,0,1.8035,1.8088,1.8167,1.8292,1.8345,1.8612,1.8529,1.8544,1.8624,1.8618,1.8747,1.8764,1.88,1.8996,1.9034,1.9127,1.8981,1.9495,1.9507,1.9517,1.9581,1.9601,1.9619,0,0,0,0,0,1.8018,1.8178,1.8171,1.8215,1.8446,1.8617,1.8647,1.8686,1.8631,1.8711,1.8774,1.8759,1.9093,1.9015,1.9057,1.9156,1.9489,1.9503,1.9517,1.9572,1.9597,1.9618,0,0,0,0,0,0,1.8063,1.8195,1.8189,1.8396,1.8495,1.8614,1.8716,1.8711,1.8828,1.8818,1.886,1.889,1.9073,1.9133,1.9044,1.9357,1.9284,1.9306,1.9312,1.9336,1.9355,1.9336,1.8993,0,0,0,0,0,1.8096,1.8225,1.8334,1.8505,1.8555,1.8627,1.8703,1.8723,1.8828,1.887,1.8948,1.9049,1.9176,1.9259,1.9382,1.9589,1.9615,1.9677,1.9696,1.9711,1.973,1.9839,1.9867,1.9568,1.9568,1.9568,0,0,1.8168,1.8256,1.8335,1.8516,1.8596,1.8726,1.8663,1.8805,1.8902,1.8892,1.9069,1.9129,1.9244,1.9439,1.9529,1.9495,1.9818,1.9728,1.9739,1.9751,1.9856,1.9884,1.9909,1.9577,1.9576,1.9574,0,0,1.8364,1.8445,1.8595,1.8675,1.8796,1.8841,1.8877,1.8996,1.9035,1.9213,1.9207,1.9322,1.9542,1.9623,1.9693,1.9914,1.9904,1.9953,2.0052,2.0158,2.0181,2.0202,2.0279,2.0306,1.9972,1.9972,1.9972,0,1.8438,1.8636,1.8672,1.8815,1.8893,1.8889,1.9039,1.9115,1.9269,1.9323,1.9282,1.9554,1.9632,1.9843,1.9897,1.9955,1.9994,1.9939,2.0175,2.0197,2.0217,2.029,2.0319,1.9977,1.9976,1.9976,1.9975,0,1.8718,1.8855,1.8961,1.9109,1.9199,1.9345,1.9402,1.9488,1.9499,1.9548,1.9727,1.982,1.9959,2.0011,2.0025,2.0223,2.0198,2.0166,2.0093,2.025,2.0319,2.0348,1.9984,1.9982,1.9981,1.998,0,0,1.8954,1.9117,1.9155,1.922,1.935,1.9456,1.9599,1.9735,1.9807,1.9913,2.0032,2.0215,2.0185,2.0264,2.0286,2.0379,2.0544,2.0335,2.0338,2.0369,2.0765,2.0788,2.082,2.0538,2.0543,2.0548,2.0754,0,1.9162,1.9417,1.9452,1.9677,1.9802,1.9797,1.9921,2.0013,2.0062,2.0173,2.0226,2.0354,2.0306,2.0353,2.0445,2.0505,2.0624,2.049,2.0647,2.0652,2.0618,2.0857,2.0882,2.1073,2.0782,2.0787,2.079,0,1.9441,1.9552,1.9789,1.9898,1.9951,2.0063,2.0188,2.0295,2.0398,2.0426,2.0512,2.0521,2.0666,2.0586,2.0785,2.0693,2.0759,2.0797,2.0805,2.0821,2.0731,2.0877,2.1136,2.1163,2.0834,2.083,2.0827,0,1.9585,1.9794,1.9962,2.0018,2.0151,2.0228,2.0287,2.0384,2.0462,2.057,2.062,2.0744,2.0812,2.0906,2.0947,2.0885,2.1142,2.1067,2.1168,2.1167,2.1223,2.1219,2.1494,2.1267,2.1266,2.1266,2.1265,0,1.9814,1.9959,2.0028,2.0132,2.0292,2.0329,2.0486,2.0542,2.0627,2.0739,2.0742,2.0847,2.0895,2.1006,2.1038,2.1196,2.1227,2.1252,2.1259,2.1252,2.1248,2.1295,2.1283,2.1273,2.1272,2.127,2.1269,0,2.0004,2.0057,2.0239,2.0347,2.0378,2.0491,2.0583,2.0682,2.0727,2.0868,2.0903,2.0975,2.1105,2.1155,2.1315,2.1336,2.1517,2.1514,2.1483,2.1484,2.1582,2.1571,2.1896,2.1939,2.1685,2.1687,2.1689,0,2.0146,2.0257,2.0377,2.0451,2.0512,2.0634,2.0712,2.0751,2.0832,2.0954,2.1037,2.1167,2.1273,2.1481,2.1546,2.1667,2.1665,2.1771,2.1684,2.1671,2.1664,2.1657,2.1667,2.1787,2.1789,2.1792,2.1793,0,2.0393,2.0412,2.0525,2.0647,2.074,2.0838,2.0933,2.0994,2.1046,2.1137,2.127,2.1352,2.1513,2.164,2.1763,2.1821,2.1816,2.182,2.1849,2.1843,2.1819,2.1831,2.1525,2.1812,2.1811,2.1809,2.1808,2.1807,2.0562,2.0659,2.0757,2.0881,2.0956,2.1044,2.114,2.1196,2.1308,2.1442,2.1458,2.16,2.1694,2.1859,2.1921,2.2031,2.2003,2.2046,2.2057,2.2067,2.2072,2.1802,2.2054,2.2053,2.2053,2.2053,2.2052,0,2.0807,2.0868,2.0983,2.1114,2.1211,2.1196,2.1299,2.1381,2.1506,2.1595,2.1698,2.1848,2.1971,2.2044,2.2166,2.2239,2.2239,2.227,2.2264,2.2277,2.2092,2.2054,2.2267,2.2267,2.2267,2.2267,2.2267,2.2267,2.0945,2.1107,2.1137,2.1334,2.1394,2.1533,2.1593,2.1672,2.1742,2.191,2.2012,2.2058,2.214,2.2267,2.2377,2.2395,2.2439,2.2472,2.2487,2.2313,2.2291,2.2269,2.2233,2.2481,2.2482,2.2662,2.2664,2.2665]}]]